{"data":{"norad_id":69093,"intl_designator":"2025-135BW","name":"TRANSPORTER-14 OBJECT BR","alt_names":[],"object_type":"PAYLOAD","status":"ACTIVE","operator":null,"country":"US","launch_date":"2025-06-23","launch_site_code":"AFWTR","launch_vehicle":null,"mission":null,"orbit_class":"UNKNOWN","rcs_meters":null,"size_class":null,"mass_kg":null,"dimensions":null,"purposes":[],"wikipedia_slug":null,"has_3d_model":false,"image_url":null,"decayed_at":null,"tle_current":{"epoch":"2026-05-25T00:47:03.043104Z","epoch_age_seconds":75377,"freshness":"FRESH","line1":"1 69093U 25135BW  26145.03267411  .02479562  19251-5  57385-3 0  9994","line2":"2 69093  97.4290 256.3610 0315188 163.5736 197.6030 15.67912809  3131","mean_motion":15.67912809,"eccentricity":0.0315188,"inclination_deg":97.429,"raan_deg":256.361,"arg_perigee_deg":163.5736,"mean_anomaly_deg":197.603,"bstar":0.00057385,"rev_number":313,"period_min":91.841841697716,"perigee_km":152.34290297609,"apogee_km":577.40616691126,"semimajor_km":6743.0115349437,"source":"CELESTRAK","updated_at":"2026-05-25T13:38:09.053656Z"}}}